Wind_Speed
17 18 19 19 20 21 21 21 23 22 24 23 24 25 25 25 26 26 28 29 31 32 32 33 33 33 32 32 32 32 32 32 32 32 32 32 32 32 32 33 33 33 33 34
16 17 18 19 20 20 21 21 21 23 23 22 23 24 25 25 26 27 27 27 27 28 28 28 28 28 28 28 28 28 28 29 29 29 29 29 29 29 30 30 31 31 31 32
17 17 18 17 18 20 20 20 21 21 21 23 24 23 24 24 25 25 25 25 25 25 25 25 25 25 25 25 25 26 26 27 27 27 27 27 27 27 27 28 29 29 30 30
17 17 17 16 17 18 19 19 21 20 21 22 22 22 23 23 24 24 24 23 23 23 23 23 23 23 23 23 24 24 24 25 24 23 23 24 24 24 25 26 27 27 28 28
16 16 15 15 15 16 16 17 17 17 18 19 19 20 20 21 22 22 22 22 22 22 22 22 22 22 22 22 22 22 22 21 21 21 21 21 22 22 23 24 25 25 26 27
15 15 15 14 15 14 15 15 16 15 16 16 17 18 18 20 21 21 21 21 22 22 22 21 21 21 21 21 20 20 20 20 19 20 20 20 21 22 23 23 24 24 25 25
16 15 14 15 15 14 14 14 15 15 16 16 17 18 18 19 19 20 21 21 22 22 22 21 21 20 20 20 20 19 19 19 19 19 19 20 20 21 22 23 23 24 24 25
16 16 16 15 15 15 15 15 15 15 16 16 17 17 18 18 18 19 20 21 22 22 22 21 21 21 20 19 19 19 19 19 19 19 19 20 20 21 22 23 24 24 24 25
16 16 16 17 16 16 16 16 16 16 16 16 16 17 17 18 18 19 20 22 22 23 23 22 22 21 21 20 20 20 20 20 20 20 20 21 21 22 22 23 24 25 25 26
17 17 18 18 18 18 17 17 17 17 18 18 18 18 18 19 19 20 21 22 23 24 24 23 23 23 22 22 21 21 21 21 21 21 21 22 23 23 24 24 25 26 26 27
20 19 20 20 20 20 20 20 20 20 20 20 20 20 21 21 21 21 22 22 23 24 25 25 25 24 24 23 23 23 22 22 22 23 23 23 24 25 25 26 27 27 27 28
23 22 22 22 22 22 22 22 22 22 22 22 22 22 23 23 24 24 24 25 25 25 25 25 26 26 26 25 25 25 24 24 24 25 25 25 26 26 27 28 28 28 29 29
24 24 24 24 23 23 23 23 23 24 24 24 25 25 25 26 26 26 26 27 27 27 27 27 27 28 28 27 27 27 27 27 27 27 27 28 28 29 29 29 30 30 30 31
25 25 25 24 24 24 24 24 25 25 25 26 26 27 27 28 28 28 28 29 29 29 29 29 29 29 29 29 29 29 29 29 29 29 29 30 30 30 30 31 31 31 32 32
26 25 25 25 25 25 25 25 25 25 26 26 27 27 28 29 29 29 30 30 30 30 30 30 30 31 31 31 31 31 31 31 31 31 31 32 32 32 32 32 32 33 33 34
25 25 25 25 26 26 27 26 27 27 26 26 27 27 28 28 29 29 30 31 31 31 31 31 32 32 32 32 32 32 32 32 33 33 33 33 33 33 33 33 34 34 34 35
23 24 25 26 26 25 25 25 26 26 26 26 26 26 26 27 28 28 29 30 31 31 32 33 33 34 34 34 34 34 34 34 34 34 34 34 34 34 34 34 35 35 35 36
22 23 24 24 25 25 24 24 25 25 26 26 26 26 26 27 27 28 28 29 30 31 32 33 34 34 34 34 35 35 35 35 35 35 35 34 35 35 35 35 35 35 36 37
19 20 21 22 22 22 22 23 23 23 24 24 25 25 26 27 27 28 28 29 29 30 31 32 32 33 34 34 34 34 34 34 34 34 34 35 35 35 36 36 36 36 37 38
16 17 17 18 19 20 21 22 22 22 22 23 24 25 25 25 26 27 27 28 29 30 30 30 31 32 33 33 33 34 34 34 35 35 35 35 35 36 36 36 37 38 38 39
16 17 17 18 19 19 20 21 21 22 22 22 23 23 24 24 24 24 25 26 27 28 29 29 30 30 31 32 32 33 33 34 34 34 35 35 35 36 36 37 38 38 39 39
17 18 18 19 19 19 19 20 21 21 21 22 21 22 22 22 22 23 23 23 24 25 25 26 27 28 29 30 30 31 32 32 33 33 34 34 35 35 36 37 37 38 38 38
19 19 19 20 20 20 20 20 21 21 21 21 21 21 21 22 22 22 23 23 23 23 24 24 25 26 26 27 28 29 30 31 31 31 32 33 34 34 35 36 36 37 37 37
22 22 22 22 23 22 22 22 22 22 22 22 22 22 22 22 22 22 23 23 23 24 24 24 25 25 25 26 26 27 28 29 29 29 30 31 32 32 33 33 34 34 35 35
24 24 25 25 25 25 25 24 24 24 24 23 23 23 23 23 23 23 23 24 24 25 25 25 26 26 26 27 27 27 27 27 28 28 28 29 29 30 30 31 32 32 33 34
27 27 27 27 27 27 27 26 26 25 25 25 24 24 24 24 24 24 25 25 24 24 24 25 25 25 25 26 26 26 26 27 27 27 27 28 28 29 30 31 31 32 33 34
28 28 28 28 28 28 28 27 27 27 27 26 26 26 26 26 26 26 26 25 25 25 26 26 25 25 25 24 24 24 25 25 26 27 27 28 29 30 30 31 32 33 34 35
Wind_Direction
229 233 235 237 239 242 244 248 248 246 246 242 241 240 240 241 241 241 241 241 242 244 246 248 250 252 253 255 257 260 262 264 266 268 270 272 274 275 277 279 280 282 285 287
233 237 240 241 242 244 246 248 250 248 246 246 242 240 239 240 241 241 241 242 243 245 246 247 249 250 252 255 257 259 261 263 266 268 270 273 275 278 279 280 282 284 287 289
238 242 244 243 244 246 247 247 248 248 246 244 242 239 236 236 238 239 239 240 242 243 244 245 247 248 251 253 255 257 260 263 266 268 271 273 276 279 280 282 284 287 289 291
242 245 248 247 246 247 247 247 249 247 243 243 242 238 236 235 237 238 239 240 240 241 242 243 245 247 249 251 255 258 261 264 266 268 272 275 277 280 282 284 286 288 290 292
245 246 247 247 247 248 248 247 247 244 242 242 239 237 237 236 237 237 237 237 238 239 241 242 244 246 249 252 255 258 261 263 265 268 272 276 279 282 284 286 288 290 291 293
243 243 241 242 246 248 247 244 244 241 240 240 238 238 236 235 236 237 236 237 238 239 239 241 243 246 249 252 255 257 259 262 265 269 273 277 281 283 286 288 290 292 294 295
242 241 239 241 244 245 244 242 240 239 239 239 238 237 236 237 237 238 238 238 238 238 239 242 244 247 250 253 256 257 260 263 266 270 274 278 281 284 286 289 291 293 295 297
244 243 242 243 243 243 244 242 240 239 239 239 240 240 240 240 240 240 240 239 238 239 240 243 246 248 250 253 256 258 260 263 267 271 275 279 283 286 288 290 293 295 296 297
246 246 244 243 243 243 244 244 243 242 241 241 242 242 241 241 242 243 243 242 241 242 244 245 247 249 251 253 256 259 262 264 268 271 275 280 283 286 289 291 293 294 295 297
246 247 247 246 245 245 245 246 245 245 245 244 244 243 243 244 244 245 246 246 246 246 247 248 248 250 252 254 257 260 263 265 268 271 275 279 282 285 288 290 293 294 296 297
246 247 248 249 249 248 248 248 248 247 247 247 246 245 245 245 247 247 248 249 250 251 251 251 251 251 253 255 258 261 264 266 269 272 275 278 281 284 286 289 291 294 295 297
247 248 249 250 251 251 251 251 250 250 249 249 248 248 248 247 249 250 251 251 252 253 253 253 253 254 255 257 259 261 264 267 269 272 275 277 280 283 285 287 290 292 294 296
250 250 251 252 253 253 253 253 252 252 252 252 251 250 251 251 251 251 253 253 253 254 255 256 256 256 256 258 260 262 264 267 270 272 275 277 280 282 284 286 288 290 293 296
251 252 252 252 253 253 253 254 255 255 255 254 254 253 253 253 253 253 254 254 255 256 257 257 258 258 258 260 261 263 264 266 269 272 274 277 279 281 284 286 288 290 292 295
253 253 252 252 253 254 254 255 256 256 257 257 256 255 255 255 255 255 255 256 257 258 258 259 259 260 261 261 262 264 265 267 269 272 274 277 279 281 283 286 288 290 292 294
254 253 253 253 253 253 254 255 256 257 258 259 258 257 257 257 257 256 257 257 258 259 259 260 261 261 262 263 264 265 266 268 269 271 274 276 278 281 283 285 287 290 292 294
255 254 253 252 252 253 254 255 256 257 257 258 258 258 258 258 258 258 258 259 259 260 260 261 262 263 264 264 266 266 267 268 270 272 274 276 278 280 283 285 287 289 291 293
255 252 250 250 250 252 253 253 255 257 257 258 258 258 259 260 260 261 261 261 261 262 262 262 262 263 264 265 266 267 268 269 271 273 274 276 278 280 282 285 287 289 291 293
256 251 247 247 248 250 253 254 255 257 259 259 259 261 262 262 262 263 263 263 264 263 264 264 264 264 264 264 265 266 268 269 271 273 274 276 278 280 282 284 287 289 291 294
253 249 248 247 248 253 255 256 257 258 259 261 263 264 265 265 265 265 266 266 266 265 265 265 265 265 265 265 265 267 268 270 271 273 275 276 278 280 281 284 287 289 292 293
252 250 249 250 253 256 258 257 257 258 260 263 267 267 266 266 267 268 269 269 268 267 267 267 267 266 266 266 267 268 269 270 272 273 275 276 278 279 281 284 287 290 292 294
252 251 251 252 254 257 259 259 259 260 262 264 266 267 268 268 268 269 270 270 271 271 270 269 268 268 268 268 269 269 270 271 273 274 275 276 278 279 281 284 287 290 292 294
252 251 253 254 255 256 258 260 261 262 264 265 266 267 268 270 270 271 271 272 272 272 272 271 271 271 271 271 271 271 272 273 274 275 276 277 278 280 282 285 287 290 293 295
254 254 255 256 256 258 259 261 262 263 264 265 265 267 268 269 271 271 272 274 274 274 273 273 273 273 273 273 273 273 274 274 275 275 277 279 281 283 285 287 290 292 293 294
256 256 256 257 258 258 259 260 261 263 265 265 266 268 269 270 272 273 274 275 276 275 275 275 275 275 275 275 275 274 274 275 276 277 279 281 283 285 287 289 292 294 295 296
257 257 257 257 258 257 258 260 262 263 264 265 267 268 269 270 272 273 275 276 277 276 276 276 277 277 276 277 276 275 274 275 276 278 281 283 286 288 290 292 293 295 297 298
257 257 257 257 258 258 258 260 261 262 264 266 268 269 270 271 273 274 274 275 276 276 277 277 277 277 277 277 277 278 277 277 278 280 282 285 287 289 290 292 294 296 298 299
Height
5641 5643 5644 5646 5647 5648 5650 5651 5653 5655 5657 5660 5662 5664 5667 5669 5672 5674 5677 5680 5683 5685 5688 5690 5692 5694 5695 5697 5698 5699 5700 5700 5700 5700 5699 5699 5698 5696 5695 5693 5691 5689 5687 5684
5637 5638 5639 5641 5642 5643 5645 5646 5647 5649 5651 5654 5656 5658 5661 5663 5665 5667 5670 5672 5675 5678 5680 5682 5684 5686 5687 5689 5690 5691 5691 5692 5692 5691 5691 5690 5689 5687 5686 5684 5682 5680 5678 5675
5633 5634 5635 5637 5638 5639 5640 5641 5642 5643 5647 5647 5649 5652 5654 5656 5659 5661 5663 5666 5668 5671 5673 5675 5677 5678 5680 5681 5682 5683 5683 5684 5684 5683 5682 5682 5680 5679 5678 5676 5674 5672 5670 5667
5629 5630 5631 5635 5633 5634 5635 5636 5637 5638 5640 5641 5643 5646 5648 5650 5653 5655 5657 5660 5662 5664 5666 5668 5670 5672 5673 5674 5675 5675 5676 5676 5676 5675 5675 5674 5673 5671 5670 5668 5666 5664 5661 5659
5625 5625 5627 5629 5629 5629 5630 5631 5632 5633 5635 5636 5638 5640 5643 5645 5647 5649 5652 5654 5656 5658 5660 5662 5664 5665 5666 5667 5668 5668 5669 5669 5668 5668 5667 5667 5665 5664 5663 5661 5659 5656 5654 5651
5621 5621 5623 5625 5625 5625 5627 5628 5629 5629 5631 5632 5634 5636 5639 5639 5642 5644 5646 5648 5650 5652 5654 5656 5657 5659 5660 5661 5661 5662 5662 5662 5662 5661 5661 5660 5659 5657 5656 5654 5652 5649 5647 5644
5616 5617 5619 5621 5621 5622 5624 5625 5625 5625 5627 5628 5630 5632 5633 5635 5637 5639 5641 5643 5645 5647 5648 5650 5651 5653 5654 5654 5655 5655 5655 5655 5655 5655 5654 5653 5652 5651 5649 5647 5645 5643 5640 5637
5612 5613 5617 5616 5617 5618 5619 5619 5620 5621 5623 5624 5625 5627 5629 5630 5632 5634 5636 5637 5639 5641 5643 5644 5645 5647 5647 5648 5649 5649 5649 5649 5649 5648 5648 5647 5646 5644 5642 5640 5638 5636 5633 5630
5609 5611 5611 5611 5612 5613 5614 5615 5616 5617 5619 5620 5621 5622 5624 5626 5627 5629 5630 5632 5634 5635 5637 5638 5639 5640 5641 5642 5643 5643 5643 5643 5643 5642 5641 5640 5639 5637 5636 5634 5631 5629 5626 5623
5603 5604 5605 5606 5607 5608 5610 5611 5612 5613 5614 5615 5617 5618 5619 5621 5622 5624 5625 5626 5628 5629 5631 5632 5633 5634 5635 5636 5636 5636 5636 5636 5636 5635 5635 5633 5632 5631 5629 5627 5624 5622 5619 5616
5598 5599 5600 5601 5602 5603 5604 5605 5606 5608 5609 5610 5611 5613 5614 5615 5617 5618 5619 5621 5622 5623 5624 5625 5626 5627 5628 5629 5629 5629 5630 5629 5629 5628 5627 5626 5625 5623 5622 5620 5617 5615 5612 5609
5591 5593 5594 5595 5596 5597 5598 5599 5600 5602 5603 5604 5605 5607 5608 5609 5611 5612 5613 5614 5615 5616 5617 5618 5619 5620 5621 5622 5622 5622 5622 5622 5621 5621 5620 5619 5617 5616 5614 5612 5609 5607 5604 5601
5584 5585 5587 5588 5589 5590 5591 5592 5594 5595 5596 5597 5598 5600 5601 5602 5604 5605 5606 5607 5608 5609 5610 5611 5612 5613 5613 5614 5614 5614 5614 5614 5613 5613 5612 5611 5609 5608 5606 5604 5601 5599 5596 5593
5576 5578 5579 5581 5582 5583 5584 5585 5586 5587 5588 5589 5591 5592 5593 5594 5596 5597 5598 5599 5600 5601 5602 5603 5604 5604 5605 5606 5606 5606 5606 5605 5605 5604 5603 5602 5601 5599 5597 5595 5593 5590 5587 5584
5568 5570 5571 5573 5574 5575 5576 5577 5579 5580 5581 5582 5583 5584 5585 5586 5587 5589 5590 5591 5592 5593 5594 5594 5595 5596 5596 5597 5597 5597 5597 5597 5596 5595 5594 5593 5592 5590 5588 5586 5584 5581 5578 5575
5560 5561 5563 5564 5566 5567 5568 5569 5571 5572 5573 5574 5574 5576 5577 5578 5579 5580 5581 5582 5583 5584 5585 5586 5586 5587 5587 5587 5588 5588 5588 5587 5587 5586 5585 5584 5582 5581 5579 5577 5574 5572 5569 5566
5552 5553 5555 5556 5558 5559 5560 5561 5562 5563 5564 5565 5566 5567 5568 5569 5570 5571 5572 5573 5574 5575 5575 5576 5577 5577 5578 5578 5578 5578 5578 5578 5577 5576 5575 5574 5573 5571 5569 5567 5565 5562 5559 5556
5544 5545 5546 5548 5549 5551 5552 5553 5554 5555 5556 5557 5558 5559 5560 5561 5562 5562 5563 5564 5564 5565 5566 5566 5567 5567 5567 5568 5568 5568 5568 5568 5567 5566 5565 5564 5563 5561 5559 5557 5555 5552 5550 5547
5537 5538 5539 5540 5541 5543 5545 5546 5547 5548 5549 5550 5551 5551 5552 5553 5553 5554 5554 5555 5555 5555 5556 5556 5557 5557 5557 5557 5558 5558 5558 5557 5557 5556 5555 5554 5553 5551 5549 5547 5545 5542 5540 5536
5532 5532 5533 5534 5535 5537 5538 5539 5540 5541 5542 5542 5543 5544 5544 5544 5545 5545 5545 5546 5546 5546 5546 5546 5547 5547 5547 5547 5547 5547 5547 5547 5547 5546 5545 5544 5543 5541 5539 5537 5535 5532 5529 5526
5528 5528 5529 5529 5530 5531 5531 5532 5533 5534 5535 5535 5536 5536 5536 5536 5537 5537 5537 5537 5537 5537 5537 5537 5537 5537 5537 5537 5537 5537 5537 5537 5536 5536 5535 5534 5532 5531 5529 5527 5524 5522 5519 5516
5523 5523 5523 5524 5524 5525 5525 5526 5527 5527 5528 5528 5529 5529 5529 5529 5529 5529 5529 5529 5529 5528 5528 5528 5527 5527 5527 5527 5527 5527 5527 5526 5526 5525 5524 5523 5522 5520 5518 5516 5514 5511 5508 5505
5517 5517 5518 5518 5518 5519 5519 5520 5520 5520 5521 5521 5522 5522 5522 5522 5522 5522 5521 5521 5520 5520 5520 5519 5519 5519 5518 5518 5517 5517 5517 5516 5516 5515 5514 5513 5511 5510 5508 5506 5504 5501 5498 5495
5510 5510 5511 5511 5512 5512 5513 5513 5513 5514 5514 5514 5514 5514 5514 5514 5514 5514 5514 5513 5513 5512 5512 5511 5511 5510 5510 5509 5508 5508 5507 5507 5506 5505 5504 5503 5501 5500 5498 5496 5493 5491 5488 5485
5502 5502 5503 5504 5504 5505 5505 5506 5506 5506 5507 5507 5507 5507 5507 5507 5506 5506 5506 5505 5504 5504 5503 5503 5502 5502 5501 5500 5500 5499 5498 5498 5497 5496 5495 5494 5492 5490 5488 5486 5484 5481 5478 5475
5493 5494 5494 5495 5496 5496 5497 5497 5498 5498 5498 5499 5499 5499 5499 5498 5498 5498 5497 5497 5496 5495 5495 5494 5494 5493 5492 5491 5491 5490 5489 5489 5488 5487 5486 5485 5483 5481 5479 5477 5475 5472 5469 5465
5483 5484 5485 5486 5487 5487 5488 5489 5489 5490 5490 5490 5490 5490 5490 5490 5490 5489 5489 5488 5488 5487 5486 5486 5485 5484 5484 5483 5482 5481 5481 5480 5479 5478 5477 5476 5474 5472 5470 5468 5465 5462 5459 5456